Location: Berg
(47.2344°N, 9.5296°E)
Time: 15:13:27
(UTC+00:00)

Nauka - Pass Details

Date: 18 September 2021
Orbit: 417 x 423 km, 51.6° (Epoch: 20 October)

Event Time Altitude Azimuth Distance (km) Brightness Sun altitude
Rises 18:49:34 0° 232° (SW) 2,353 ? -14.5°
Reaches altitude 10° 18:51:40 10° 229° (SW) 1,493 ? -14.8°
Maximum altitude 18:54:58 58° 150° (SSE) 492 ? -15.3°
Enters shadow 18:56:09 34° 86° (E) 706 ? -15.5°
